Change the Weather History Date:

Saturday, September 28, 2013

  Actual Average Record
Temperature  
Mean Temperature 48 °F -  
Max Temperature 64 °F 70 °F 87 °F (1989)
Min Temperature 32 °F 43 °F 32 °F (1999)
Degree Days  
Heating Degree Days 17    
Moisture  
Dew Point 34 °F    
Average Humidity 72    
Maximum Humidity 93    
Minimum Humidity 30    
Precipitation  
Precipitation 0.00 in - - ()
Sea Level Pressure  
Sea Level Pressure 30.22 in    
Wind  
Wind Speed 4 mph (SE)    
Max Wind Speed 8 mph    
Max Gust Speed -    
Visibility 12 miles    
Events      
Averages and records for this station are not official NWS values.
T = Trace of Precipitation, MM = Missing Value Source: NWS Daily Summary

Daily Weather History Graph

Daily Weather History Graph

Search for Another Location

Airport or City:

Trip Planner

Search our weather history database for the weather conditions in past years. The results will help you decide how hot, cold, wet, or windy it might be!

Date:

Astronomy

Sep. 28, 2013 Rise Set
Actual Time 7:20 AM MDT 7:13 PM MDT
Civil Twilight 6:53 AM MDT 7:40 PM MDT
Nautical Twilight 6:21 AM MDT 8:12 PM MDT
Astronomical Twilight 5:49 AM MDT 8:43 PM MDT
Moon 1:10 AM MDT (9/28) 3:35 PM MDT (9/28)
Length of Visible Light 12h 47m
Length of Day
11h 52m
Waning Crescent, 35% of the Moon is Illuminated
Sep 28
Waning Crescent
Oct 4
New
Oct 11
First Quarter
Oct 18
Full
Oct 26
Last Quarter

Hourly Weather History & Observations

Time (MDT) Temp. Windchill Dew Point Humidity Pressure Visibility Wind Dir Wind Speed Gust Speed Precip Events Conditions
12:35 AM 37.4 °F 32.8 °F 33.8 °F 87% 30.24 in 10.0 mi SE 5.8 mph - N/A   Clear
1:15 AM 37.4 °F 32.1 °F 32.0 °F 81% 30.23 in 10.0 mi East 6.9 mph - N/A   Clear
1:35 AM 35.6 °F 31.7 °F 32.0 °F 87% 30.24 in 10.0 mi ESE 4.6 mph - N/A   Clear
1:55 AM 35.6 °F 32.8 °F 32.0 °F 87% 30.23 in 10.0 mi ESE 3.5 mph - N/A   Clear
2:15 AM 35.6 °F 32.8 °F 30.2 °F 81% 30.24 in 10.0 mi ESE 3.5 mph - N/A   Clear
2:35 AM 35.6 °F 32.8 °F 32.0 °F 87% 30.24 in 10.0 mi East 3.5 mph - N/A   Clear
2:55 AM 35.6 °F 32.8 °F 32.0 °F 87% 30.24 in 10.0 mi East 3.5 mph - N/A   Clear
3:15 AM 35.6 °F - 32.0 °F 87% 30.24 in 10.0 mi Calm Calm - N/A   Clear
3:35 AM 35.6 °F - 32.0 °F 87% 30.24 in 10.0 mi Calm Calm - N/A   Clear
3:55 AM 35.6 °F 32.8 °F 30.2 °F 81% 30.24 in 10.0 mi South 3.5 mph - N/A   Clear
4:15 AM 35.6 °F 31.7 °F 30.2 °F 81% 30.25 in 10.0 mi South 4.6 mph - N/A   Clear
4:35 AM 35.6 °F 30.7 °F 32.0 °F 87% 30.25 in 10.0 mi SSE 5.8 mph - N/A   Clear
4:55 AM 35.6 °F 32.8 °F 32.0 °F 87% 30.24 in 10.0 mi ESE 3.5 mph - N/A   Clear
5:15 AM 35.6 °F 31.7 °F 32.0 °F 87% 30.25 in 10.0 mi SE 4.6 mph - N/A   Clear
5:35 AM 33.8 °F 29.6 °F 30.2 °F 87% 30.25 in 10.0 mi SE 4.6 mph - N/A   Clear
5:55 AM 35.6 °F 29.2 °F 32.0 °F 87% 30.25 in 10.0 mi SE 8.1 mph - N/A   Clear
6:35 AM 35.6 °F 32.8 °F 32.0 °F 87% 30.26 in 10.0 mi ESE 3.5 mph - N/A   Clear
6:55 AM 35.6 °F - 30.2 °F 81% 30.26 in 15.0 mi Calm Calm - N/A   Clear
7:58 AM 32.0 °F 26.4 °F 28.4 °F 87% 30.27 in 15.0 mi ESE 5.8 mph - N/A   Scattered Clouds
8:47 AM 37.4 °F 33.8 °F 35.6 °F 93% 30.28 in 15.0 mi Variable 4.6 mph - N/A   Clear
9:59 AM 46.4 °F 44.3 °F 33.8 °F 62% 30.29 in 15.0 mi Variable 4.6 mph - N/A   Clear
10:55 AM 50.0 °F - 33.8 °F 54% 30.30 in 15.0 mi Variable 4.6 mph - N/A   Clear
11:55 AM 51.8 °F - 35.6 °F 54% 30.28 in 15.0 mi Variable 4.6 mph - N/A   Clear
12:50 PM 53.6 °F - 37.4 °F 54% 30.27 in 15.0 mi Variable 4.6 mph - N/A   Clear
2:50 PM 57.2 °F - 44.6 °F 63% 30.24 in 15.0 mi Variable 4.6 mph - N/A   Clear
3:59 PM 60.8 °F - 32.0 °F 34% 30.20 in 15.0 mi Variable 4.6 mph - N/A   Clear
4:55 PM 64.4 °F - 32.0 °F 30% 30.19 in 15.0 mi Variable 4.6 mph - N/A   Clear
5:50 PM 62.6 °F - 35.6 °F 37% 30.18 in 15.0 mi Variable 4.6 mph - N/A   Clear
6:52 PM 59.0 °F - 37.4 °F 45% 30.16 in 15.0 mi Calm Calm - N/A   Scattered Clouds
7:53 PM 53.6 °F - 42.8 °F 67% 30.16 in 15.0 mi Calm Calm - N/A   Partly Cloudy
8:49 PM 50.0 °F - 39.2 °F 66% 30.17 in 15.0 mi ESE 6.9 mph - N/A   Partly Cloudy
9:15 PM 50.0 °F - 39.2 °F 66% 30.17 in 10.0 mi SSE 5.8 mph - N/A   Clear
9:35 PM 48.2 °F - 37.4 °F 66% 30.17 in 10.0 mi SE 8.1 mph - N/A   Clear
9:55 PM 48.2 °F - 37.4 °F 66% 30.17 in 10.0 mi SSE 5.8 mph - N/A   Clear
10:15 PM 48.2 °F - 37.4 °F 66% 30.18 in 10.0 mi SE 4.6 mph - N/A   Clear
10:35 PM 48.2 °F - 37.4 °F 66% 30.17 in 10.0 mi Calm Calm - N/A   Clear
10:55 PM 46.4 °F 44.3 °F 37.4 °F 71% 30.17 in 10.0 mi East 4.6 mph - N/A   Clear
11:15 PM 44.6 °F - 35.6 °F 71% 30.17 in 10.0 mi Calm Calm - N/A   Clear
11:35 PM 44.6 °F 43.1 °F 35.6 °F 71% 30.17 in 10.0 mi South 3.5 mph - N/A   Clear
11:55 PM 44.6 °F - 35.6 °F 71% 30.18 in 10.0 mi Calm Calm - N/A   Clear